Location: Wellington
(41.3000°S, 174.7830°E)
Time: 22:57:50
(UTC+13:00)

Cosmos 2322 - Pass Details

Date: 24 January 2019
Orbit: 839 x 856 km, 71.0° (Epoch: 20 February)

Event Time Altitude Azimuth Distance (km) Brightness Sun altitude
Exits shadow 23:18:17 21° 333° (NNW) 1,830 5.2 -21.9°
Maximum altitude 23:22:14 83° 247° (WSW) 866 3.7 -22.3°
Drops below altitude 10° 23:28:00 10° 158° (SSE) 2,493 6.6 -22.9°
Sets 23:30:28 0° 156° (SSE) 3,433 7.3 -23.2°
